Location: Three Guys Observatory
(38.6418°N, 87.1521°W)
Time: 07:12:50
(UTC-04:00)

ISS - Visible Passes

Search period start: 26 March 2017 00:00
Search period end: 05 April 2017 00:00
Orbit: 399 x 409 km, 51.6° (Epoch: 26 March)

Date Brightness Start Highest point End Pass type
(mag) Time Alt. Az. Time Alt. Az. Time Alt. Az.
26 Mar -3.1 21:15:02 10° SSW 21:17:59 33° SE 21:18:25 32° ESE visible
27 Mar -2.8 21:58:52 10° WSW 22:02:00 45° NW 22:02:03 45° NNW visible
28 Mar -3.9 21:06:21 10° SW 21:09:36 89° NW 21:12:41 11° NE visible
28 Mar -0.6 22:44:21 10° WNW 22:45:24 14° NW 22:45:24 14° NW visible
29 Mar -1.5 21:51:11 10° W 21:53:51 23° NNW 21:55:46 14° NNE visible
30 Mar -2.3 20:58:15 10° WSW 21:01:18 37° NNW 21:04:22 10° NE visible
30 Mar -0.6 22:37:31 10° NNW 22:38:31 11° NNW 22:38:36 11° NNW visible
31 Mar -0.9 21:43:55 10° NW 21:45:48 14° NNW 21:47:39 10° NNE visible
01 Apr -1.3 20:50:37 10° WNW 20:53:07 20° NNW 20:55:36 10° NNE visible
02 Apr -0.7 21:37:16 10° NNW 21:37:47 10° NNW 21:38:18 10° N visible
03 Apr -1.0 20:43:23 10° NW 20:45:00 13° NNW 20:46:36 10° NNE visible
